Find Local Weather

World > North America > United States > Florida

Ocala, Florida Regional Weather

Lat: 29.19N, Lon: 82.13W
Wx Zone: FLZ040
Feedback
Expires:201809221700;;041799
ASUS42 KTBW 221617
RWRFL 
FLORIDA REGIONAL WEATHER ROUNDUP
NATIONAL WEATHER SERVICE TAMPA BAY RUSKIN FL
1200 PM EDT SAT SEP 22 2018

NOTE: "FAIR" INDICATES FEW OR NO CLOUDS BELOW 12,000 FEET WITH NO
SIGNIFICANT WEATHER AND/OR OBSTRUCTIONS TO VISIBILITY.


FLZ040-043>046-052-053-057-058-063-144-221700-
INTERIOR CENTRAL FLORIDA
  
CITY           SKY/WX    TMP DP  RH WIND       PRES   REMARKS
OCALA          PTSUNNY   87  72  60 NE5       30.07F                  
LEESBURG       FAIR      88  73  61 E10G26    30.06F HX  95           
SANFORD        FAIR      85  75  72 NE10      30.06F                  
ORLANDO EXEC   FAIR      87  74  64 E13       30.06F HX  95           
ORLANDO INTL   PTSUNNY   85  73  67 NE14      30.05F                  
KISSIMMEE      FAIR      87  73  62 E12       30.06S                  
WINTER HAVEN   FAIR      88  72  58 NE10      30.05F                  
LAKELAND       PTSUNNY   84  70  61 E13       30.05F                  
SEBRING        FAIR      89  71  55 E9        30.03S                  
OKEECHOBEE     FAIR      86  73  66 N6        30.02S                  

$$

SKY/WX - Weather  TMP - Temperature  DP - Dew Point  RH - Relative Humidity
WIND - Wind Direction/Speed PRES - Barometric Pressure